CAPE
341 381 380 370 403 577 659 750 825 867 882 903 904 958 995 961 887 856 869 996 1044 944 873 840 846 973 1056 1421 1555 1663 1550 1662 1476 1220 1049 1280 1402 1347 1442 1511 1747 2395 3379 3182 2669 4828 3981 3169 2768 2980 3842 4355 3524 3404 4153 4494 4885 3032 3257 3386 1949 1655 1414 1794 1692 1418 926 699 648 441 358 618 2601 2575 1870 1143 1366 1470 1404 961 969 878 844 703 710
374 396 392 374 383 570 640 760 935 876 868 871 904 981 1005 968 912 874 951 1086 969 841 922 886 917 1056 1123 1376 1513 1679 1572 1663 1557 1332 1096 1132 1442 1500 1483 1714 2068 2351 3720 3016 3558 3109 3566 3518 2986 2721 3693 3219 4992 4683 5210 4798 2918 2479 2470 1863 2257 1774 1486 2020 1166 911 686 612 549 473 396 544 1673 1815 978 1152 1334 1434 1248 646 626 583 480 763 616
417 414 406 391 408 524 638 746 828 859 862 887 924 974 987 977 974 943 1036 1127 1026 922 948 936 1050 1274 1195 1388 1454 1561 1585 1565 1490 1380 1376 1225 1364 1458 1511 1755 2059 2315 2630 3702 3117 3231 3646 3716 3360 4296 4113 4065 3567 2847 3022 2863 2793 2506 2705 2049 1934 1634 2524 2239 1266 927 664 1287 798 425 739 683 693 529 592 801 1111 938 1283 836 1375 637 632 837 1213
468 425 458 455 435 440 592 724 792 803 855 865 918 940 938 941 1019 1011 1081 1119 1062 1050 1234 985 1178 1311 1205 1308 1381 1361 1400 1475 1318 1222 1284 1267 1282 1318 1444 1789 1952 2197 2273 2698 3870 3432 3428 3466 3647 3364 3436 3948 3565 3278 2842 2660 2723 2437 2751 4110 2587 1627 1376 1645 3564 1155 975 984 727 915 780 688 580 392 522 722 985 1081 670 923 1222 789 926 1054 1026
407 469 473 442 395 345 528 653 735 770 808 840 898 926 909 921 1004 1041 1097 1159 1086 1326 1229 1014 1404 1393 1365 1255 1311 1218 938 1112 1119 1019 1181 1411 1328 1194 1312 1830 1913 2043 2188 2399 3398 3462 3491 3521 3591 3007 3354 3192 3816 3648 3171 2667 2761 2671 2755 2885 2704 2003 1614 2201 2178 1867 1505 1174 1172 998 851 698 448 639 932 612 887 930 559 764 1117 1593 852 950 850
544 485 481 463 383 304 438 616 694 737 755 782 860 898 889 892 963 1037 1090 1176 1214 1154 1078 993 1342 1277 1289 1039 922 861 726 763 839 918 997 1034 1353 1193 1311 1774 1926 1949 2020 2273 2506 3458 3210 3358 3412 2917 2833 2912 3849 3744 3046 2716 2356 2212 2686 2985 2804 2849 2005 1938 2250 3142 3418 2536 1448 1386 864 788 675 1010 726 574 94 1306 1139 795 1056 651 496 1582 1312
387 482 486 450 410 356 389 578 669 704 729 760 815 856 859 841 920 978 1034 1052 1114 1193 1083 983 1002 1090 1029 837 707 704 672 704 746 789 861 959 1336 1316 1412 1768 1902 1945 2056 2183 2362 3176 3192 3053 3133 2834 2747 2836 4573 4028 3158 2683 2287 2112 3291 3120 3061 4017 2095 1505 1881 2194 2252 2366 2032 1685 2081 1523 891 603 636 1004 674 630 507 182 789 846 1241 1398 1543
377 452 458 456 425 367 428 550 628 676 700 720 779 797 822 798 832 894 907 849 775 821 913 909 776 916 916 788 671 612 625 652 674 744 792 1141 1346 1418 1599 1786 1861 1929 2057 2180 2284 2704 3767 3308 3151 3059 3286 3412 3469 3362 2609 2430 2401 2478 4086 3449 3722 4236 3079 1808 2168 2719 2203 2329 2059 1362 1428 1138 805 1016 958 949 878 821 576 8 698 551 766 938 1475
359 452 471 467 433 402 385 520 596 637 661 688 741 769 765 747 758 779 756 730 654 744 747 710 792 770 848 776 745 619 496 534 588 834 744 1469 1350 1429 1714 1772 1810 1871 2056 2228 2292 2372 3867 3888 3414 3254 3260 3215 4249 3657 2672 2111 2176 1994 1615 2485 3221 3483 3397 3005 3049 2611 2384 2318 2225 1631 1476 1148 786 1080 1052 951 814 601 332 332 237 260 722 845 1064
246 770 477 446 471 450 398 488 562 613 624 650 684 710 723 714 730 694 667 671 638 722 930 708 762 953 764 742 735 729 598 460 448 563 765 1110 1285 1381 1766 1846 1854 1855 1973 2232 2383 2400 2595 3622 3477 3079 2868 2930 4115 3687 2792 2102 1862 1693 1967 2233 3246 3304 2846 3722 3296 3279 3159 2814 2604 2057 1531 1233 1202 1222 1088 1058 706 572 584 432 24 472 674 845 1007
332 337 906 512 505 476 406 381 524 610 615 617 646 680 679 701 714 679 640 630 650 678 887 767 731 866 704 670 683 733 560 442 456 541 707 924 1148 1262 1679 1894 1940 1894 1874 2217 2307 2412 2384 2992 3280 3016 2742 3420 4111 3536 2998 2394 1719 1578 1813 2157 2484 2814 2732 2657 3064 3080 2915 2673 2314 2024 1984 1724 1566 1385 1331 1049 814 698 795 637 473 548 832 1031 1260
752 332 1043 866 529 491 457 420 431 558 644 621 648 648 656 659 667 646 618 619 663 692 882 838 779 838 753 608 595 657 628 524 483 534 700 851 1004 1144 1402 1796 1948 1942 1887 2018 2269 2305 2416 2656 3292 3284 3084 2800 2575 2874 2842 2446 2013 1921 1870 1911 2294 2688 3077 3669 3395 3023 2662 2398 2298 2257 2044 1872 1986 1721 1226 976 882 783 950 946 736 941 992 1057 1000
716 609 503 570 548 532 507 471 472 458 675 702 739 642 622 613 600 568 564 605 656 792 928 879 820 865 858 696 547 555 594 578 532 545 710 821 931 1033 1182 1533 1734 1890 1949 1952 2163 2349 2451 2541 2581 2728 2811 2854 2818 2604 2648 2533 2263 2065 1895 1865 2038 2391 2684 2780 2636 2419 2325 2300 2255 2272 2282 2150 2028 1746 1449 1038 930 982 1109 1041 922 1377 911 774 954
738 479 308 259 573 577 553 538 527 494 598 721 788 782 659 637 640 582 571 607 654 847 928 927 877 900 879 772 632 600 583 599 583 569 714 842 898 928 1080 1390 1613 1810 1887 1872 1995 2301 2517 2520 2591 2531 2555 2614 2681 2685 2580 2496 2407 2278 2158 2060 1982 2062 2380 2423 2341 2314 2247 2132 2327 2462 2262 1976 1812 1650 1359 1228 1269 1307 1354 1257 1017 848 889 941 1083
736 570 463 387 282 609 606 600 584 540 536 633 749 845 766 683 663 642 614 618 663 874 911 936 960 958 951 810 692 639 615 746 689 597 716 881 912 916 1009 1296 1513 1670 1751 1771 1872 2119 2336 2445 2483 2458 2350 2353 2436 2553 2811 2806 2870 3054 2924 2380 2378 2291 2299 2631 2644 2406 2348 2642 2793 2507 2240 2194 2017 1701 1498 1320 1312 1437 1450 1261 884 725 784 969 1173
748 531 537 470 460 393 547 529 582 561 485 523 681 805 830 799 712 686 636 620 653 945 909 911 942 956 1017 1166 673 727 1136 816 1065 1160 748 861 921 922 963 1176 1399 1537 1620 1642 1768 1862 2022 2160 2314 2419 2346 2299 2300 2354 2421 2791 2836 2933 2794 2689 2683 3372 3202 3022 2774 2597 2634 2640 2414 2375 2320 2275 2316 2325 2110 1684 1494 1520 1410 1236 989 807 884 1037 1134
865 881 480 333 438 345 82 383 459 511 531 494 649 768 816 829 781 727 681 646 625 903 909 852 841 905 913 1144 1205 844 1160 905 1008 1200 1032 965 908 916 958 1168 1363 1431 1478 1611 1718 1810 1853 1908 1979 2074 2262 2319 2346 2298 2252 2540 2789 2853 2907 2746 2586 2616 2748 2664 2440 2414 2461 2556 2583 2420 2341 2415 2560 2270 2009 1731 1489 1488 1488 1333 1001 778 863 974 1102
780 899 873 678 478 305 200 184 356 485 386 536 601 777 816 821 812 773 738 698 644 794 864 818 791 855 912 920 1167 1223 1080 1110 985 1161 1201 1146 1069 1033 1023 1198 1387 1453 1417 1420 1528 1611 1745 2376 1923 1913 2033 2216 2311 2335 2271 2418 2601 2698 2798 2851 2817 2884 2960 2875 2638 2686 2688 2671 2698 2718 2616 2667 2495 2108 1860 1649 1629 1503 1526 1554 1328 1089 872 853 1012
733 740 811 882 844 819 429 290 423 405 468 380 358 792 838 840 821 804 791 774 698 748 873 839 796 828 900 932 1000 1138 1229 1216 1113 1172 1260 1203 1189 1146 1163 1178 1306 1445 1554 1525 1501 1506 1587 1723 1718 1853 1899 2033 2209 2282 2372 2461 2516 2556 2710 2776 2837 2808 2746 2638 2510 2571 2649 2779 2836 2864 2853 2777 2437 2399 2325 1725 1525 1490 1814 1808 1632 1362 1272 1146 943
514 694 806 582 650 670 820 607 478 456 478 447 356 440 826 868 846 808 781 845 758 769 977 918 863 855 899 974 1000 1073 1163 1227 1224 1200 1309 1284 1234 1269 1282 1287 1343 1469 1618 1694 1752 1757 1664 1466 1324 1578 1745 1853 1996 2170 2370 2629 2597 2595 2646 2765 2800 2683 2574 2486 2569 2755 2873 3001 3002 2921 2872 2678 2531 2678 2570 2036 1660 1833 1848 1815 1730 1494 1510 1395 1083
423 488 566 800 670 552 772 698 543 498 472 573 403 492 632 816 853 797 739 864 844 815 963 993 960 946 979 992 1024 1091 1156 1184 1195 1190 1275 1332 1311 1318 1385 1420 1414 1462 1563 1669 1669 1630 1479 1300 1243 1542 1584 1650 1753 1972 2236 2554 2703 2720 2744 2782 2756 2625 2550 2606 2650 2722 2666 2545 2526 2568 2580 2586 2626 2706 2566 2271 2034 1854 1762 1700 1684 1712 1644 1500 1242
469 673 606 807 901 673 527 628 498 431 560 874 612 519 400 820 879 839 768 1001 989 918 970 1039 1041 1027 1023 1040 1043 1072 1162 1195 1149 1111 1139 1206 1239 1201 1146 1130 1119 1134 1166 1200 1184 1122 1128 1196 1225 1316 1641 1665 1717 1863 2047 2307 2512 2588 2641 2616 2602 2534 2416 2332 2324 2336 2306 2413 2528 2561 2537 2541 2474 2486 2421 2076 1900 1902 1910 1838 1676 1710 1844 1632 1318
675 633 783 892 834 841 659 484 353 361 430 654 569 576 721 757 789 924 803 878 996 1028 1015 1082 1131 1121 1102 1098 1082 1077 1128 1203 1206 1110 1022 1021 1046 1098 1151 1159 1140 1086 1070 1090 1049 1000 940 977 1041 1087 1386 1703 1800 1878 1991 2147 2296 2398 2436 2459 2451 2464 2414 2358 2300 2278 2319 2354 2356 2384 2511 2442 2383 2393 2376 2087 1819 1628 1422 1422 1460 1539 1632 1430 1206
757 812 857 742 758 869 776 610 486 345 383 558 600 480 540 662 738 889 830 786 900 1001 1056 1101 1168 1205 1191 1178 1157 1110 1087 1122 1168 1203 1132 995 952 928 907 1013 1069 1070 1054 1032 1017 1038 1044 966 900 881 802 1236 1584 1828 1959 2077 2178 2266 2378 2393 2416 2406 2367 2370 2383 2315 2207 1986 1879 1922 2189 2388 2513 2395 2012 1503 1425 1462 1367 1334 1220 1165 1234 1148 1043
736 728 812 722 785 886 809 539 398 328 344 340 454 525 599 576 790 839 860 802 675 827 1004 1084 1128 1177 1200 1198 1210 1200 1134 1083 1075 1100 1130 1128 1060 949 866 812 832 883 884 865 845 888 894 864 854 937 1014 900 951 1208 1521 1748 1969 2107 2178 2215 2266 2301 2339 2390 2405 2370 2118 1700 1482 1591 1638 1814 1970 1982 1868 1702 1379 1238 1238 1198 1137 1122 1018 886 803
595 546 608 654 645 852 835 678 411 304 257 318 403 596 693 672 648 832 883 778 727 722 932 1070 1092 1123 1147 1159 1165 1182 1205 1188 1131 1078 1061 1080 1094 1028 956 896 854 860 692 894 885 831 786 850 853 816 729 659 565 670 729 996 1180 1347 1577 1792 1925 2029 2134 2198 2175 1966 1498 1225 1167 1434 1450 1542 1699 1766 1762 1531 1168 987 1082 1211 1223 1157 998 849 889
391 469 532 650 647 666 823 909 569 529 336 284 379 474 570 638 676 637 872 846 735 699 784 984 1117 1155 1157 1141 1097 1104 1149 1199 1200 1150 1087 1048 1044 1057 1040 934 892 876 737 908 972 970 964 930 846 826 818 660 808 1001 1056 1072 1073 1101 1194 1259 1311 1411 1444 1510 1435 1184 932 864 986 1154 1277 1329 1229 1210 1220 1297 1356 1303 1115 946 813 795 844 946 1134
351 415 413 527 612 516 521 786 791 686 613 397 328 381 594 705 732 642 562 602 650 688 689 746 933 1169 1239 1231 1170 1101 1095 1106 1129 1138 1118 1070 1041 1043 1049 1006 937 860 784 710 820 926 984 990 941 879 770 740 1012 1081 1030 1114 1147 1112 1100 1135 1124 1100 1021 1299 1363 1195 1074 931 911 1310 1377 1331 1303 1302 1315 1283 1095 989 871 786 946 1264 1097 965 1431
230 222 350 515 542 490 538 448 884 643 608 436 415 344 428 619 716 713 770 719 719 789 811 776 612 796 1121 1294 1318 1276 1211 1156 1136 1159 1151 1131 1100 1075 1054 1049 979 915 822 718 769 809 834 901 933 944 896 927 1063 1035 1126 1157 1179 1188 1223 1224 1204 1141 1300 1441 1430 1162 1112 1112 1160 1103 1158 1300 1296 1310 1558 1548 1150 1021 906 950 1014 1238 1353 1553 1893
232 222 331 513 598 636 599 486 605 858 676 618 525 400 356 487 711 829 888 1002 921 1018 995 929 802 682 909 1222 1318 1328 1290 1246 1194 1160 1191 1210 1204 1137 1068 990 877 921 860 706 766 750 759 890 953 945 1018 1236 1281 1204 1477 1616 1437 1377 1386 1435 1465 1398 1430 1396 1206 1054 1113 1206 1235 1347 1457 1484 1812 2347 2607 2771 2416 1998 1760 1218 1436 1639 1742 1926 2137
270 320 357 519 576 609 720 662 646 735 890 903 569 580 482 480 535 744 966 1064 1057 1180 1147 1112 1025 913 887 1110 1312 1269 1166 1147 1185 1107 1101 1170 1207 1256 1230 1162 901 720 741 826 763 726 695 871 925 1043 1175 1258 1311 1331 1731 1401 1482 1542 1607 1550 1471 1394 1253 1114 1193 1325 1422 1475 1544 1737 1711 1567 2291 2623 2978 2764 2887 2985 2966 2728 2449 2135 2420 2440 2432
256 298 374 380 487 516 576 566 668 687 682 631 822 759 612 555 515 640 878 1054 1132 1131 1184 1169 1120 997 934 943 1167 1086 882 1075 1456 1138 1084 1146 1097 1102 1192 1180 1128 746 714 801 800 767 700 904 938 1003 1134 1231 1344 1526 1587 1606 1520 1398 1713 1731 1259 1241 1432 1280 1654 1801 1798 1869 2023 2096 1857 1556 1218 1290 2145 2639 2998 2714 2670 2631 2726 2442 2382 2390 2550
338 334 341 282 364 390 369 531 618 647 455 523 562 670 768 671 543 536 588 776 1037 1115 1080 1089 1032 838 602 691 777 854 779 862 1289 1850 1826 1862 1749 1444 1034 785 805 876 792 858 974 860 920 843 741 752 914 1000 1054 1119 1138 1238 1348 1343 1238 1912 2448 2168 2035 1887 1851 1922 1994 2146 2219 1940 1409 1229 1534 1370 1613 1692 1936 2029 2148 2411 2321 2232 2277 2144 1992
334 286 214 158 269 416 420 612 598 604 698 524 628 677 629 683 611 609 546 499 672 814 888 881 804 623 503 451 511 703 750 866 1033 1818 2169 2336 2232 2355 1649 1070 882 902 1135 1330 1414 1434 1379 1238 1082 934 822 700 606 726 758 738 827 964 1056 1105 1574 2352 2461 2375 2278 2320 2263 2049 1727 1435 1315 1164 1308 939 700 1055 1739 1905 1721 1878 1658 1884 2040 1645 1404
310 288 176 123 253 301 432 405 657 666 805 805 796 775 715 651 569 652 658 435 476 505 520 488 494 397 407 480 465 555 498 664 790 734 706 1076 2147 2044 2148 1984 1934 2032 2166 2161 1863 1603 1514 1393 1250 1077 912 778 633 636 630 594 614 725 838 925 996 1702 2351 2606 2578 2455 2324 2062 1842 1702 1490 1323 948 838 855 1046 1098 1077 1428 1486 1651 1900 1797 1986 1784
287 176 72 92 179 315 411 496 528 557 754 794 816 784 730 669 594 581 604 587 474 573 549 649 582 624 592 846 1104 1226 1194 1026 786 668 709 1047 1092 1222 1706 2204 2232 2179 2133 2073 2108 1897 1725 1514 1333 1173 1030 1016 871 792 583 552 591 585 672 810 938 999 1206 1925 2291 2304 2412 2226 1931 1764 1477 1126 961 950 997 947 805 953 1290 1378 1400 1558 1302 1220 1341
138 54 130 171 283 392 475 549 560 576 586 803 782 658 629 573 555 593 596 631 807 671 702 654 716 604 953 1404 1323 1426 1477 1231 1133 1188 1124 1136 1524 2110 2004 1937 2050 2040 1854 1852 1975 1814 1659 1577 1416 1222 1071 989 920 819 700 558 532 517 494 525 594 680 722 1087 1910 1938 2205 2044 1679 1621 1439 1254 1134 1086 1020 913 848 965 1188 1133 1277 1165 1073 1021 836
260 196 250 297 283 360 352 413 519 617 544 498 499 592 704 554 509 439 400 375 384 615 774 708 711 1008 1156 1532 1776 1716 1664 1664 1456 1306 1003 1148 1612 1641 1649 1613 1667 1631 1685 1653 1640 1518 1460 1547 1479 1433 1326 1229 1094 951 816 687 583 519 476 501 511 497 606 742 1248 1485 1163 1011 1221 1224 1249 1215 1112 1072 1070 917 700 692 862 980 887 772 838 797 714
67 274 338 381 341 370 380 393 441 498 522 605 344 559 668 627 750 603 612 738 786 790 880 1034 1174 1189 1190 1452 1636 1647 1646 1580 1469 1353 1282 1176 1302 1270 1259 1209 1258 1292 1354 1339 1354 1354 1383 1308 1244 1269 1241 1143 1106 1028 957 899 805 711 673 658 687 628 750 781 1179 974 861 1004 953 922 1061 1172 1097 970 760 578 495 505 561 628 606 512 460 478 492
20 22 125 316 404 441 474 416 426 428 380 382 381 473 811 775 766 596 783 652 541 695 748 881 1119 1267 1394 1487 1514 1548 1544 1458 1461 1394 1312 1250 1213 1154 1102 1074 1029 1025 1031 1025 1022 1015 1058 1166 1182 1206 1132 1010 903 879 834 860 918 866 831 826 854 840 1007 1226 1189 819 689 818 788 926 840 736 664 612 550 498 457 402 376 353 339 324 289 284 212
29 12 8 235 296 380 439 459 428 417 422 414 394 380 646 788 896 825 430 375 577 567 570 797 764 1091 1224 1355 1378 1383 1406 1378 1307 1226 1163 1105 1039 976 934 882 841 816 820 831 863 876 892 883 835 808 824 812 768 724 690 661 644 708 744 686 772 1037 1165 979 994 1018 913 964 770 713 682 637 586 524 472 452 399 364 334 309 282 247 223 214 216
12 0 0 38 254 325 354 411 446 453 451 463 509 491 392 573 661 782 602 138 442 704 772 681 807 942 958 1009 1069 1101 1120 1148 1108 1008 954 914 820 704 634 585 550 528 504 493 507 528 566 580 539 540 572 626 618 598 603 619 682 670 635 591 661 697 768 796 838 847 782 751 754 716 568 467 376 351 324 282 226 206 224 261 209 171 169 184 194
1 0 0 0 0 226 281 332 387 430 410 482 552 579 513 451 450 594 591 505 321 274 220 427 488 602 718 875 1028 1047 1030 925 771 699 640 577 517 469 430 336 297 268 262 294 286 275 278 299 260 244 282 389 490 562 571 738 734 690 677 671 486 493 620 752 838 820 658 565 523 460 380 339 313 281 239 187 145 110 96 90 109 127 145 138 113
0 0 0 0 0 106 229 260 341 356 410 453 454 527 549 537 563 500 441 446 436 352 372 354 118 212 399 545 780 779 663 527 454 390 336 328 318 286 256 231 196 281 336 324 368 438 454 441 433 293 296 404 519 583 715 808 694 650 487 463 437 420 311 488 536 512 390 296 250 236 213 203 160 130 97 56 37 42 37 37 6 52 66 70 56
0 0 35 0 30 204 211 213 204 265 312 324 382 441 487 507 506 434 428 400 382 341 341 334 102 76 126 176 100 321 423 371 360 283 200 134 124 106 85 35 84 135 176 258 314 278 326 314 302 301 343 458 462 382 360 282 321 475 289 368 407 337 319 134 106 152 122 162 119 80 43 36 41 51 35 20 9 10 0 0 0 0 1 2 1
23 11 7 26 27 176 158 156 43 147 200 232 254 297 331 360 304 311 282 158 157 82 304 216 295 279 241 205 188 164 207 197 126 105 79 63 44 26 0 0 0 0 20 78 80 76 79 102 102 94 67 60 91 93 8 46 210 283 215 147 143 115 151 109 58 61 55 12 17 16 28 42 25 0 0 0 0 0 0 0 0 0 0 0 0
16 118 232 240 249 222 128 94 1 13 110 151 197 236 262 260 250 207 174 152 114 143 92 114 122 95 106 90 109 112 106 91 73 55 8 0 0 0 0 0 0 0 0 1 2 1 0 0 0 6 5 5 4 0 14 48 58 76 110 136 125 115 38 0 9 45 40 0 32 22 18 3 0 0 0 0 0 0 0 0 0 6 6 0 0
251 235 24 0 62 151 145 104 93 26 0 125 143 164 148 140 110 90 82 87 76 74 56 53 47 22 15 0 0 0 0 0 0 0 0 0 0 0 0 0 0 0 0 0 0 0 0 0 0 0 11 0 0 0 0 0 0 0 0 51 106 96 72 63 46 35 57 31 35 2 0 0 0 0 0 0 0 0 0 0 0 0 0 0 0
218 185 2 7 1 0 28 112 114 84 95 104 122 124 120 107 85 77 87 76 73 65 55 50 43 33 1 0 1 0 0 0 0 0 0 0 0 0 0 0 1 0 0 0 0 0 0 0 0 0 0 0 0 0 0 0 0 0 0 0 0 0 12 64 28 0 0 0 0 0 0 0 0 0 0 0 0 0 0 0 0 0 0 0 0
147 41 16 14 25 59 0 0 39 42 47 96 106 102 92 100 78 79 76 76 65 58 54 50 22 0 0 0 0 0 0 0 0 0 0 0 0 0 0 0 0 0 0 0 0 0 0 0 0 0 0 0 0 0 0 0 0 0 0 0 0 2 3 2 0 0 0 0 0 0 0 0 0 0 0 0 0 0 0 0 0 0 0 0 0
46 41 28 20 24 0 0 0 0 0 0 0 0 76 91 77 54 38 38 40 48 51 37 0 0 0 0 0 0 0 0 0 0 0 0 0 0 0 0 0 0 0 0 0 0 0 0 0 0 0 0 0 0 0 0 0 0 0 0 0 9 15 7 20 6 1 0 0 0 0 0 0 0 0 0 0 0 0 0 0 0 0 0 0 0
Wind_Speed
6 2 4 6 7 10 10 11 10 8 8 9 8 8 9 9 7 5 4 4 5 5 5 6 7 8 9 10 11 12 13 13 11 11 13 15 17 17 17 16 15 13 11 9 8 9 8 8 8 7 7 5 6 6 6 7 6 5 4 3 4 4 2 4 2 4 4 2 4 5 4 6 8 9 10 9 9 10 11 10 9 9 10 9 9
9 6 2 5 6 10 10 9 9 9 8 8 9 9 10 9 7 5 3 6 7 7 7 8 9 10 10 12 13 13 14 13 14 15 16 18 18 17 16 14 12 10 8 7 6 6 7 7 7 7 6 6 5 6 6 7 7 6 4 5 2 1 1 2 1 3 3 5 5 3 2 3 6 6 7 8 8 10 12 12 10 10 11 10 10
7 6 3 3 5 10 9 8 8 9 10 10 7 7 8 8 5 4 5 7 8 7 8 10 10 11 13 14 14 15 17 17 17 18 18 18 17 16 14 12 10 9 7 6 5 5 4 5 6 6 5 6 7 8 7 8 7 6 5 2 4 1 0 1 2 4 3 5 6 6 4 3 3 4 7 9 10 12 13 13 11 12 12 11 11
5 2 1 2 4 7 8 8 7 5 6 6 6 7 7 7 4 5 7 7 8 9 10 12 12 13 15 15 16 15 17 18 18 18 18 18 17 14 13 11 9 8 6 5 5 4 4 4 4 5 5 5 6 6 7 6 7 7 6 3 2 3 3 1 2 4 5 5 3 5 5 5 3 7 8 11 11 14 14 13 10 11 10 10 9
4 3 2 4 4 6 8 7 7 6 6 6 6 6 6 8 5 5 8 8 8 10 10 12 13 14 16 16 16 17 18 16 16 18 17 15 14 12 12 10 9 8 7 5 5 4 3 3 2 3 4 4 5 4 4 4 5 4 4 4 3 1 2 1 1 4 4 4 6 4 2 3 7 10 7 11 10 11 11 10 9 9 9 8 8
8 5 2 4 6 6 6 7 7 6 5 5 5 5 4 5 3 5 8 9 10 11 10 11 13 13 14 14 14 16 16 14 14 14 14 13 12 11 10 8 7 7 6 6 5 4 3 3 3 4 4 4 4 3 3 5 6 4 3 3 3 2 1 2 3 4 4 2 4 4 5 5 6 7 7 9 nan 12 11 10 9 8 9 8 9
8 7 6 6 8 7 6 6 6 6 5 3 2 1 2 3 3 4 8 10 10 11 11 11 12 13 13 13 13 13 13 15 14 13 11 12 10 9 8 7 6 5 6 6 6 5 5 4 4 4 4 4 5 4 5 5 5 5 4 3 3 3 4 4 4 3 6 4 3 3 3 3 5 5 8 8 7 8 6 8 8 7 8 7 8
6 5 5 7 8 8 6 5 6 6 4 2 0 2 0 2 3 4 8 9 10 10 11 11 11 12 13 13 13 12 12 13 12 11 11 10 8 8 6 6 6 6 6 6 6 6 6 5 5 5 5 5 5 5 5 6 5 5 5 4 5 4 4 4 4 3 2 1 2 3 2 3 3 4 7 8 10 8 9 nan 10 9 8 9 10
6 4 6 7 8 7 5 3 4 4 4 3 1 1 2 3 3 5 6 9 9 8 10 11 11 11 12 12 13 13 12 12 11 10 9 9 7 8 7 7 7 6 6 6 7 7 7 6 6 6 6 6 7 7 7 6 6 6 7 6 6 5 5 4 4 3 2 1 2 3 4 3 3 5 6 6 8 7 10 10 11 10 10 11 9
8 10 8 11 9 7 4 5 5 4 2 2 2 4 4 5 4 5 6 9 9 8 8 10 10 10 11 12 12 13 12 12 10 9 8 8 7 8 8 7 6 6 6 7 7 7 7 6 6 6 6 7 7 7 7 7 7 7 6 5 6 7 6 5 4 3 2 3 2 3 4 4 4 4 5 5 6 8 11 10 nan 10 10 13 10
7 9 14 13 13 8 7 5 5 5 4 4 4 4 5 5 5 5 6 8 9 8 7 8 8 8 9 9 10 11 11 10 10 10 9 8 7 7 7 6 6 5 6 6 6 6 6 5 5 5 6 6 6 6 6 6 7 7 7 6 6 6 6 5 5 4 4 3 3 4 5 7 6 6 6 7 8 8 6 8 8 10 12 11 11
12 10 11 14 16 11 8 7 7 6 6 5 5 5 5 6 7 6 8 8 8 9 7 7 7 7 7 7 7 8 7 7 6 7 6 5 5 6 6 6 6 6 6 6 6 5 5 5 5 5 5 5 5 5 5 5 7 7 7 7 7 7 5 5 5 5 4 2 1 2 3 4 4 5 7 9 9 8 6 8 10 8 8 12 13
11 18 18 14 13 11 7 7 8 8 7 6 6 6 6 7 7 6 7 9 8 8 8 7 7 7 6 5 6 6 6 5 4 5 5 4 4 5 5 5 5 6 5 4 4 4 4 4 4 4 4 4 5 5 5 5 6 6 6 6 6 6 5 5 6 4 3 2 0 1 3 3 4 3 7 8 6 5 5 6 8 8 9 10 9
16 16 10 11 10 8 7 6 7 8 8 7 7 7 7 8 7 6 7 9 10 9 8 8 7 6 6 5 5 5 5 4 4 4 4 4 3 4 3 3 3 3 3 3 3 4 5 4 4 3 3 4 4 4 5 5 4 5 6 6 5 5 4 3 3 3 3 2 3 1 1 2 2 4 6 8 7 6 5 7 7 5 6 8 8
16 14 12 11 8 8 9 7 8 10 10 8 9 9 8 8 8 7 8 9 9 9 9 7 8 7 7 6 5 5 4 4 3 3 2 3 4 4 4 4 3 4 3 3 5 5 5 5 4 4 3 3 3 4 4 4 4 4 5 4 5 4 3 3 3 3 2 2 1 2 2 2 1 4 8 7 7 7 7 7 6 4 4 3 6
15 15 16 18 23 26 22 13 10 12 12 11 9 10 9 9 9 8 8 8 9 9 9 8 8 9 9 8 7 6 6 5 4 4 3 2 2 2 4 4 4 4 5 5 4 4 5 5 5 4 4 4 3 3 3 2 2 2 4 4 4 4 4 5 4 3 2 1 1 2 3 1 1 4 6 7 7 6 6 6 6 3 3 6 4
19 18 22 23 21 17 nan 27 20 13 14 14 11 10 10 10 10 10 10 10 10 10 9 10 10 10 9 9 9 9 7 6 5 4 3 3 2 2 3 4 5 6 5 6 5 5 4 5 6 6 6 6 5 5 4 4 3 3 3 4 4 5 4 5 4 3 2 1 1 1 0 1 1 4 6 8 7 6 6 7 7 6 6 5 3
19 20 21 21 20 18 20 23 26 29 20 14 13 12 11 12 11 11 12 11 11 11 11 12 11 10 11 10 11 10 9 8 8 6 6 4 4 3 5 5 5 5 6 6 6 6 6 7 7 7 7 7 7 7 5 4 3 3 3 3 3 2 3 3 3 2 2 1 2 1 1 1 0 3 4 8 9 8 8 8 8 8 9 10 9
24 22 22 21 18 17 20 22 23 27 33 33 20 14 14 13 12 12 13 12 11 13 13 13 13 13 13 12 11 12 12 12 11 10 8 6 4 3 3 4 5 6 7 7 7 7 7 8 7 8 7 7 6 5 4 3 1 2 1 1 1 0 1 3 3 2 1 2 2 2 1 1 1 1 3 6 8 9 8 8 8 9 10 11 11
26 25 23 22 18 17 22 22 21 25 26 28 30 24 14 14 14 14 15 15 15 15 15 14 14 14 14 15 15 15 14 14 13 12 10 7 5 4 4 4 4 5 6 6 6 6 6 6 6 5 5 4 3 3 2 1 1 0 0 0 1 2 2 2 4 4 4 3 2 2 1 1 1 2 2 4 5 5 5 5 6 7 8 10 12
26 25 23 23 20 18 21 21 22 26 27 27 26 22 19 17 17 16 16 16 16 16 17 16 17 15 15 15 15 16 15 15 14 13 10 8 8 6 5 4 6 5 5 6 6 5 5 4 4 3 2 1 1 1 2 3 3 1 1 2 4 5 4 4 6 7 6 5 3 1 1 1 4 6 8 8 7 5 5 5 5 4 5 7 9
25 23 23 24 23 20 21 27 29 31 32 31 27 25 19 16 18 20 20 19 19 19 19 19 18 17 16 16 15 16 16 16 14 13 11 10 9 8 6 6 4 4 5 5 6 5 5 4 4 4 3 2 1 1 3 5 4 3 2 3 4 6 4 3 3 4 5 4 4 3 3 6 8 8 8 8 7 7 7 6 5 6 5 5 5
23 23 23 25 26 22 22 25 28 29 32 33 31 30 23 20 19 21 19 18 19 20 21 21 20 19 17 18 18 17 17 16 14 13 11 11 11 10 9 7 5 5 5 4 4 4 5 6 6 6 5 4 4 3 4 5 4 4 3 4 5 6 4 3 2 1 2 4 5 6 6 7 8 7 6 6 8 8 8 6 6 8 7 6 7
23 22 23 26 27 26 26 23 25 28 30 31 33 31 31 29 20 20 19 19 21 23 24 22 20 19 19 19 19 19 17 16 14 14 13 12 12 12 11 9 6 6 5 5 4 5 7 7 6 6 7 7 7 7 7 6 5 6 6 6 6 6 6 4 1 2 4 5 5 5 3 5 5 5 5 5 6 7 7 7 7 7 7 6 8
25 25 24 27 28 28 29 26 25 26 29 30 33 31 27 26 29 23 19 22 23 26 25 22 20 19 20 19 18 20 19 18 16 15 13 13 13 12 12 9 8 6 5 6 6 10 13 14 14 12 10 8 7 9 9 7 6 7 9 9 8 8 6 4 3 3 3 5 5 4 3 5 5 5 7 7 7 7 8 10 8 8 8 8 8
25 25 25 26 27 27 29 29 26 25 26 28 30 29 27 27 22 26 27 24 26 27 25 24 22 20 21 20 19 18 18 19 19 17 15 14 13 12 11 10 8 7 6 5 8 16 14 14 12 7 6 7 9 14 13 8 7 8 9 10 10 9 6 5 6 7 7 7 7 7 6 7 7 6 6 8 8 8 10 10 9 9 9 10 10
22 22 24 25 28 30 29 28 27 25 25 27 30 31 29 26 25 24 24 25 26 26 25 24 24 23 22 21 20 18 18 19 20 20 19 17 14 12 11 10 10 9 8 7 14 13 12 11 11 12 9 7 11 16 12 9 10 11 11 12 11 10 8 6 7 9 9 9 9 10 9 8 8 8 8 8 9 10 12 11 11 11 12 13 12
21 21 22 24 27 28 28 26 25 25 25 24 25 27 27 28 27 24 25 25 25 25 25 25 25 26 23 20 20 21 21 20 21 22 20 18 16 15 15 15 15 12 11 12 16 13 11 12 12 12 10 12 16 16 11 11 11 11 13 13 13 12 10 8 9 11 12 11 10 10 10 10 11 11 11 10 12 12 14 13 13 14 14 14 13
26 21 19 22 26 28 27 26 26 24 23 21 23 27 29 28 29 29 28 25 24 25 25 25 26 26 23 23 24 25 25 24 22 21 21 20 20 19 19 18 17 15 15 15 15 15 14 14 14 13 13 14 17 17 15 13 12 12 14 15 16 15 13 11 12 14 15 14 13 12 11 12 12 10 10 10 12 14 16 14 13 16 15 15 14
27 24 21 20 22 26 24 25 26 23 18 17 20 26 29 26 27 30 28 26 27 26 26 27 26 25 26 28 29 29 28 27 25 22 20 21 22 22 22 22 21 21 20 19 18 17 16 15 16 16 16 16 16 18 17 15 14 15 16 17 19 18 17 15 15 16 16 16 15 15 14 13 12 12 10 10 11 14 16 18 17 19 17 16 16
26 26 24 22 22 24 23 24 25 23 21 18 15 19 27 27 27 28 26 25 26 27 30 30 28 28 30 31 30 29 31 29 27 26 24 23 24 24 23 23 24 24 23 22 20 18 17 17 17 18 17 17 18 18 16 15 14 14 17 19 20 20 20 18 18 18 18 17 17 17 18 15 14 14 14 10 12 15 16 15 15 17 17 18 20
26 26 28 28 26 24 23 22 22 20 19 18 14 11 18 23 28 27 25 25 26 29 33 38 42 40 37 35 31 31 31 31 31 30 31 29 28 26 23 24 25 26 24 24 21 19 19 19 19 20 19 19 20 19 18 17 16 16 17 20 21 21 22 21 20 21 21 22 22 22 25 26 24 22 20 21 19 17 15 15 15 15 16 12 17
27 28 30 30 28 26 23 21 19 19 19 18 16 13 11 17 22 25 27 27 28 34 40 42 41 38 38 38 37 33 33 35 34 33 33 32 29 28 28 29 27 27 27 24 21 21 21 21 21 21 20 21 22 23 22 21 20 19 17 18 21 22 23 23 23 24 26 26 28 32 32 28 27 26 26 23 25 24 23 21 20 18 16 16 21
28 28 30 30 29 26 22 19 18 19 21 21 17 14 18 20 22 25 27 28 32 36 39 39 39 38 37 39 41 36 38 39 36 35 38 34 32 33 34 30 28 28 28 26 25 23 23 22 22 22 22 24 26 30 30 28 28 27 25 23 24 25 25 26 27 30 34 39 37 31 29 28 28 27 27 26 26 26 26 28 29 25 24 24 28
26 28 29 30 30 28 24 20 18 19 21 23 25 24 26 27 27 30 31 33 34 36 36 36 38 40 40 42 43 40 39 38 35 35 38 32 33 35 32 31 31 30 28 27 25 25 25 24 23 25 27 28 31 34 32 32 30 29 27 26 28 28 30 30 34 40 41 33 32 33 35 33 32 32 31 31 30 27 27 28 27 25 26 27 28
26 27 nan nan 33 32 28 23 19 18 19 23 23 24 28 30 31 33 34 35 38 40 42 42 43 44 45 46 46 42 39 37 36 38 39 36 38 36 33 29 28 26 26 27 28 28 27 26 28 29 30 31 32 35 32 31 29 28 27 28 30 30 31 35 39 42 39 36 34 35 37 38 40 38 37 36 33 30 32 31 25 26 28 30 30
24 nan 25 28 32 34 30 25 22 20 21 23 24 25 28 30 32 32 33 32 34 36 40 44 43 42 44 51 51 47 43 44 46 45 42 38 35 33 32 32 30 29 27 25 26 29 32 31 32 33 34 33 33 34 33 31 29 27 27 27 29 30 31 36 41 41 38 38 38 38 39 40 41 41 39 37 34 35 35 32 27 28 27 27 35
21 23 25 28 32 33 31 26 23 23 22 22 25 27 32 34 32 30 31 32 34 33 35 39 40 37 37 45 50 50 49 48 47 44 41 37 35 36 36 34 32 31 32 33 32 37 38 34 35 36 34 35 34 35 36 33 32 30 26 28 31 33 35 40 43 42 40 40 37 46 48 44 43 40 38 40 38 39 38 36 35 33 33 35 36
nan 22 24 27 30 30 27 24 23 23 20 20 26 29 30 33 32 29 27 29 28 30 33 36 37 35 33 37 42 47 50 52 53 51 49 46 43 41 40 40 39 37 38 40 41 42 40 38 36 37 40 38 35 35 38 36 35 33 32 32 34 37 39 44 46 44 43 46 46 48 52 49 45 43 44 44 44 44 43 42 40 40 40 40 38
nan nan 24 25 27 27 27 25 23 20 19 22 25 29 30 28 28 29 28 27 25 25 28 30 34 35 35 35 36 40 44 48 51 53 52 49 46 46 46 46 46 44 44 44 44 44 44 42 39 38 36 37 37 36 37 37 37 36 34 35 38 39 42 43 43 42 44 45 45 46 48 49 50 48 47 48 47 46 45 41 42 44 43 41 40
nan nan nan 24 24 23 22 21 19 20 21 22 24 28 28 24 24 25 25 24 26 27 28 28 31 34 35 34 33 36 40 43 47 50 50 49 48 48 47 46 45 44 45 46 47 47 47 45 42 38 36 37 38 36 37 38 37 36 35 34 35 36 38 41 43 44 44 46 46 47 47 47 49 49 47 45 43 43 43 43 42 44 42 40 40
nan nan nan nan 21 21 21 21 21 21 22 22 24 29 27 24 23 23 19 16 20 23 24 26 30 34 36 36 37 37 36 37 40 44 46 46 44 43 42 42 42 43 45 45 45 46 46 44 40 37 37 36 38 42 35 38 37 37 38 35 31 28 29 37 41 40 42 42 42 43 44 44 48 49 47 45 43 43 43 42 41 42 43 45 44
nan nan nan nan nan 22 22 21 21 21 21 21 24 27 25 22 23 21 18 19 18 19 21 22 24 28 30 31 32 34 33 34 37 38 39 39 37 38 39 40 40 40 41 42 42 41 42 41 39 38 36 36 35 35 38 35 36 36 38 39 38 32 32 29 30 30 29 28 27 29 33 42 45 47 47 45 42 40 nan nan 37 39 39 39 37
nan nan nan nan nan 20 20 20 21 21 21 21 21 21 20 21 21 17 18 20 20 20 21 19 15 18 20 19 19 23 28 31 33 33 32 32 31 31 32 32 33 35 36 38 38 39 40 40 38 37 35 35 33 31 30 33 30 33 35 35 35 34 30 25 25 25 23 23 24 23 26 33 37 41 nan nan nan nan nan nan nan nan nan nan nan
nan nan nan nan nan 18 18 20 21 21 21 21 20 19 18 18 15 14 14 15 15 17 20 18 16 nan 19 17 nan 17 22 25 27 27 27 27 27 26 nan nan nan 31 32 32 32 34 36 36 35 35 33 33 32 31 27 25 26 25 32 33 32 32 31 30 28 27 28 28 30 nan nan nan nan nan nan nan nan nan nan nan nan nan nan nan nan
nan nan nan nan nan 19 19 20 nan 22 22 21 20 19 17 14 13 13 12 12 12 nan 17 17 18 19 21 20 19 19 19 21 23 23 nan nan nan nan nan nan nan nan nan nan nan nan nan 31 32 nan nan nan nan nan nan nan 23 24 29 33 34 37 40 39 nan nan nan nan nan nan nan nan nan nan nan nan nan nan nan nan nan nan nan nan nan
nan 24 20 20 21 22 22 nan nan nan 22 21 20 18 16 14 14 13 13 12 13 14 nan 15 16 nan 17 nan 19 17 16 nan nan nan nan nan nan nan nan nan nan nan nan nan nan nan nan nan nan nan nan nan nan nan nan nan nan nan 28 28 30 31 nan nan nan nan nan nan nan nan nan nan nan nan nan nan nan nan nan nan nan nan nan nan nan
21 24 nan nan nan 23 23 23 nan nan nan 21 20 19 17 15 13 nan nan nan nan nan nan nan nan nan nan nan nan nan nan nan nan nan nan nan nan nan nan nan nan nan nan nan nan nan nan nan nan nan nan nan nan nan nan nan nan nan nan nan 29 nan nan nan nan nan nan nan nan nan nan nan nan nan nan nan nan nan nan nan nan nan nan nan nan
18 21 nan nan nan nan nan 24 23 nan nan 21 19 17 16 14 nan nan nan nan nan nan nan nan nan nan nan nan nan nan nan nan nan nan nan nan nan nan nan nan nan nan nan nan nan nan nan nan nan nan nan nan nan nan nan nan nan nan nan nan nan nan nan nan nan nan nan nan nan nan nan nan nan nan nan nan nan nan nan nan nan nan nan nan nan
14 nan nan nan nan nan nan nan nan nan nan nan 21 19 nan 15 nan nan nan nan nan nan nan nan nan nan nan nan nan nan nan nan nan nan nan nan nan nan nan nan nan nan nan nan nan nan nan nan nan nan nan nan nan nan nan nan nan nan nan nan nan nan nan nan nan nan nan nan nan nan nan nan nan nan nan nan nan nan nan nan nan nan nan nan nan
nan nan nan nan nan nan nan nan nan nan nan nan nan nan nan nan nan nan nan nan nan nan nan nan nan nan nan nan nan nan nan nan nan nan nan nan nan nan nan nan nan nan nan nan nan nan nan nan nan nan nan nan nan nan nan nan nan nan nan nan nan nan nan nan nan nan nan nan nan nan nan nan nan nan nan nan nan nan nan nan nan nan nan nan nan
Wind_Direction
239 4 303 261 285 326 341 353 353 344 343 346 357 23 30 26 25 31 54 77 79 80 93 101 108 117 126 115 116 124 125 130 134 135 133 136 142 144 142 137 139 138 140 138 153 162 169 166 171 169 167 177 185 167 160 168 188 199 173 180 217 206 187 256 286 306 287 300 293 315 345 354 5 10 28 20 17 23 25 24 33 39 57 73 72
211 172 207 234 262 315 330 348 348 339 354 350 4 26 39 33 28 40 71 87 87 81 90 97 108 109 117 114 127 131 128 127 130 134 131 133 136 135 134 135 135 136 143 146 168 173 164 166 167 165 176 176 184 179 175 187 201 200 189 189 211 208 169 222 297 313 273 311 303 323 348 35 11 21 17 27 33 33 39 42 44 51 64 71 65
179 162 174 215 260 313 328 343 357 357 350 353 5 24 46 46 45 61 83 90 92 88 98 102 109 110 110 118 120 132 133 133 133 134 135 133 131 129 130 133 135 138 140 151 165 165 159 160 158 171 179 182 185 178 187 181 189 195 187 200 161 187 183 215 273 277 305 306 312 318 338 296 42 39 27 32 34 41 42 42 45 59 61 58 60
170 164 268 215 231 306 318 335 351 357 350 349 7 27 52 62 59 77 91 99 101 98 102 111 108 112 114 118 122 126 130 133 134 134 133 134 129 128 132 134 137 137 138 145 163 158 147 145 164 183 183 195 194 183 181 169 172 179 191 191 233 189 195 192 276 302 303 300 284 317 344 338 37 27 37 48 33 45 43 38 46 65 70 58 49
224 176 237 250 261 307 321 332 343 355 9 359 0 27 61 57 60 79 96 98 108 106 107 118 119 123 126 131 133 136 142 137 136 130 131 132 132 135 127 140 141 135 137 145 159 149 152 167 185 202 208 201 210 190 163 151 154 163 179 190 196 218 154 166 218 282 284 295 311 311 327 1 24 35 36 43 42 42 41 48 48 60 72 63 49
227 207 267 273 290 273 285 322 345 358 15 15 3 19 50 70 79 107 110 111 110 109 113 118 116 122 125 127 127 126 130 131 120 118 124 130 125 136 139 145 145 145 148 161 164 163 168 192 209 216 206 185 203 182 173 174 157 159 165 186 193 187 187 203 207 245 257 287 321 327 359 31 51 39 19 44 nan 33 50 62 54 58 56 51 53
217 213 200 244 264 274 292 321 346 356 15 11 357 8 62 80 88 102 105 112 117 117 116 116 118 118 115 117 122 120 121 124 128 128 126 126 131 134 135 147 151 154 166 178 177 173 183 194 205 205 195 182 188 187 170 156 146 153 176 185 179 215 213 191 204 207 207 235 272 293 334 7 9 23 42 24 41 48 53 53 57 59 48 43 50
237 256 240 227 262 281 310 323 338 358 338 339 323 215 234 99 114 116 123 118 120 124 119 118 116 119 120 123 121 117 116 117 124 123 126 133 130 130 144 145 158 174 182 189 190 186 190 190 197 192 187 177 175 171 159 155 162 167 175 167 175 193 201 196 194 219 257 136 255 267 296 308 319 344 3 16 20 36 71 nan 40 58 66 52 50
234 253 279 262 253 266 262 304 319 314 319 330 325 239 212 183 156 149 134 127 129 127 122 122 124 125 125 128 126 123 121 122 129 135 133 139 140 155 160 158 169 180 190 193 195 192 189 190 186 180 183 172 175 175 172 170 162 159 156 160 168 187 205 214 225 217 267 269 250 269 283 301 324 331 344 352 18 24 57 37 54 61 56 62 60
194 206 260 274 258 268 268 250 275 307 304 299 263 232 217 204 190 166 146 140 140 135 132 132 133 140 136 135 132 131 136 141 147 140 147 156 158 167 170 167 167 179 185 195 195 193 189 192 188 178 177 176 179 180 178 166 154 147 150 149 165 176 205 219 224 227 247 212 244 296 313 333 332 334 341 350 5 17 37 61 nan 61 71 64 63
205 209 212 244 261 257 254 265 264 258 257 263 245 238 225 216 205 180 156 161 153 145 147 138 144 146 138 137 136 137 143 153 156 151 157 165 162 164 171 164 180 180 195 197 201 196 195 196 191 185 184 177 180 189 167 157 151 153 160 165 160 164 167 194 203 214 232 234 259 308 344 338 343 343 8 355 2 30 43 59 59 45 48 75 63
216 231 224 226 252 253 240 247 246 256 260 259 242 235 230 220 211 198 177 171 171 160 156 148 152 146 145 140 134 136 147 153 143 135 137 141 148 149 157 172 179 189 200 201 197 201 206 198 195 196 183 174 171 177 172 161 155 158 161 159 158 166 170 180 195 184 191 242 286 319 344 333 318 345 353 341 355 26 25 57 61 61 64 49 64
233 219 212 228 240 251 241 242 243 247 259 270 266 249 237 227 220 216 186 181 182 181 162 157 161 151 147 140 138 144 141 136 131 122 129 129 137 143 164 159 180 189 186 199 195 209 216 205 196 191 179 175 172 169 160 160 155 157 159 158 164 165 168 181 177 186 213 210 179 287 302 322 6 344 321 339 350 2 9 43 50 38 48 68 63
248 250 229 217 226 232 241 246 255 257 257 262 261 254 238 228 222 220 205 197 191 194 184 172 162 158 158 150 146 156 140 137 134 122 124 127 130 126 149 163 175 167 183 186 202 215 217 210 206 197 194 177 167 158 154 155 158 154 157 158 159 169 191 173 177 200 226 253 303 274 253 319 20 315 327 330 348 347 1 23 46 55 42 64 75
230 246 236 221 214 214 230 245 260 262 260 251 248 250 243 238 235 223 218 213 206 199 200 191 180 179 179 169 172 176 164 159 144 138 131 127 135 135 145 167 169 159 168 180 203 207 207 203 190 183 178 166 157 152 146 151 157 163 155 154 165 171 172 177 180 208 189 190 246 296 258 264 336 318 320 346 347 4 357 3 356 92 118 75 94
226 223 219 222 217 205 199 218 243 254 259 247 247 247 245 240 246 242 237 233 223 213 206 204 196 194 193 192 188 187 185 186 181 174 161 134 133 129 132 155 155 164 171 191 182 195 189 176 171 154 151 143 139 134 134 122 127 123 127 140 138 159 147 146 142 163 130 122 166 239 268 181 256 301 313 330 349 3 4 346 329 339 49 99 108
221 227 229 229 238 236 nan 199 199 222 242 247 240 239 251 245 244 246 236 232 236 229 222 213 210 205 198 197 201 197 197 195 186 187 187 173 177 155 159 155 170 173 169 172 163 171 159 148 138 129 131 127 127 122 113 110 103 92 98 116 115 119 125 120 129 125 112 135 214 206 185 139 147 294 303 322 337 343 360 354 342 355 349 13 47
222 220 234 244 243 239 233 233 209 191 196 232 243 230 233 241 248 252 244 239 235 238 234 227 223 212 206 204 203 203 198 196 197 199 207 210 191 188 181 184 171 167 168 161 155 145 143 129 127 121 121 126 114 114 111 104 106 90 85 88 91 109 122 128 116 110 118 263 280 248 279 121 234 285 313 314 322 339 346 344 347 346 338 0 2
237 234 228 235 242 239 244 239 237 226 198 189 198 233 226 227 237 247 253 247 245 240 238 232 231 220 213 209 210 209 204 202 202 204 215 217 209 207 195 182 185 177 171 166 161 152 146 137 133 127 126 119 115 105 102 95 84 77 71 70 100 110 113 129 139 181 180 263 264 259 268 128 182 294 297 308 314 323 339 333 340 332 344 350 347
237 238 239 239 243 251 258 252 240 243 233 213 189 194 217 228 234 233 238 242 239 238 238 237 233 227 221 216 212 213 212 212 210 212 215 215 213 219 203 206 190 189 177 174 169 165 160 148 145 134 126 121 106 82 51 47 331 6 352 226 213 246 217 171 170 192 195 209 234 247 282 95 140 253 250 264 271 277 284 304 322 332 335 334 330
238 240 243 245 251 251 260 261 242 235 235 229 219 201 200 219 227 230 239 242 242 241 239 238 238 234 229 228 223 221 219 218 219 218 218 216 216 215 208 203 212 191 190 180 180 172 170 168 161 165 148 129 73 40 329 308 301 308 276 241 222 234 219 192 198 179 187 191 183 176 89 214 228 217 218 229 238 247 259 267 279 290 310 310 318
236 240 245 250 250 254 261 263 249 236 231 232 227 224 214 215 234 239 241 242 243 237 234 232 235 239 240 235 233 231 228 224 226 227 225 224 224 224 219 216 212 195 206 186 185 180 186 192 195 195 201 213 270 294 289 292 312 316 298 274 264 259 251 234 226 195 175 180 188 182 186 241 252 248 242 241 236 243 263 271 290 310 316 319 317
236 237 241 250 258 255 254 265 260 244 240 236 231 228 220 216 226 236 242 245 247 245 240 236 234 235 241 242 241 239 238 235 233 229 229 232 229 229 230 227 217 206 217 218 200 191 196 213 215 217 226 229 248 275 286 296 307 307 299 268 273 279 287 283 271 199 193 211 209 212 213 240 248 254 260 266 260 256 264 287 307 310 318 322 322
243 241 239 244 255 258 257 258 254 245 242 243 237 232 222 211 212 233 236 239 240 241 243 245 241 239 240 243 246 246 247 244 241 234 231 230 232 233 235 236 229 226 223 227 237 234 239 250 251 241 246 247 245 248 252 272 304 307 304 303 293 286 282 281 265 214 209 225 235 236 255 269 263 266 267 258 252 250 252 262 273 283 293 307 314
245 239 234 237 243 250 257 260 252 248 251 245 239 237 231 224 205 205 237 240 237 233 234 239 246 248 245 246 247 249 253 252 248 245 242 240 239 237 238 237 236 231 229 233 235 249 250 245 243 232 223 233 255 267 275 280 291 301 308 307 305 303 301 292 281 275 274 268 261 268 249 252 252 247 241 241 241 241 244 251 257 265 274 276 287
246 240 233 232 239 240 247 257 257 254 254 252 241 233 229 229 228 209 201 232 237 234 236 237 237 244 245 248 247 249 256 260 258 253 253 252 250 250 249 248 251 248 243 245 250 254 262 270 276 275 266 271 266 257 253 262 277 279 286 289 291 290 292 288 273 279 291 291 282 280 271 268 271 274 271 264 258 259 254 252 252 258 268 273 280
245 242 236 232 234 233 236 244 258 255 252 250 245 233 223 223 226 223 213 212 234 238 237 239 238 238 239 243 248 247 250 256 258 254 250 248 250 254 257 257 256 256 256 254 259 266 262 266 264 259 254 254 261 267 289 289 277 274 279 282 286 285 285 285 274 276 282 290 295 292 289 285 286 287 287 286 280 274 274 270 275 277 280 283 282
246 244 237 232 232 234 232 237 246 258 258 265 255 237 225 220 222 220 227 231 232 240 239 240 240 239 239 244 247 247 245 247 250 252 251 248 244 242 244 245 247 251 254 254 262 266 264 263 266 266 264 267 273 285 288 282 278 278 277 278 279 279 283 285 282 277 281 285 290 296 300 298 294 293 290 283 281 279 270 267 271 278 284 285 287
243 242 241 233 233 233 232 232 238 245 255 260 253 236 222 217 220 226 234 241 244 247 245 244 244 242 241 244 244 243 246 246 245 248 250 250 248 246 246 247 247 249 249 253 257 261 262 261 260 263 259 261 274 283 284 283 283 281 279 279 279 281 283 285 280 278 281 285 285 292 297 298 298 310 324 302 290 284 276 276 275 277 278 279 277
241 240 235 237 235 237 237 236 241 244 245 253 249 237 226 224 229 233 236 239 248 250 249 247 248 246 242 241 238 237 243 248 249 248 248 250 251 249 247 246 244 243 245 248 250 255 261 264 265 263 261 263 269 274 285 307 297 282 281 279 279 281 283 282 278 278 281 286 289 288 286 307 313 317 319 316 306 303 299 290 283 281 280 279 281
237 236 233 234 237 236 237 237 239 241 242 247 249 230 221 225 235 243 243 242 245 249 248 248 251 246 245 243 240 237 238 242 245 247 243 247 250 249 244 242 242 243 244 245 247 253 256 259 265 268 271 270 269 270 291 300 302 300 282 278 281 282 284 285 282 283 285 286 284 281 277 281 285 286 280 295 299 301 298 297 301 299 292 288 286
232 232 233 234 234 235 234 235 233 235 241 243 244 232 219 222 235 245 246 244 243 245 248 247 242 237 233 235 243 243 238 236 236 239 239 238 243 246 247 243 242 243 242 241 240 244 246 247 252 257 262 266 267 270 280 283 288 291 285 276 275 278 280 282 281 282 283 283 279 277 267 260 252 249 259 266 264 265 273 281 280 279 278 279 287
233 230 229 228 231 231 229 227 231 229 230 237 249 261 246 234 235 236 238 244 244 240 240 242 245 249 248 239 229 235 239 232 232 239 243 242 245 246 240 238 237 240 245 243 240 240 241 243 248 255 260 262 265 273 276 275 275 276 279 271 270 273 276 278 277 275 275 275 268 261 260 262 259 240 247 258 264 263 260 262 269 267 268 270 271
232 231 227 225 227 231 229 225 222 225 221 217 238 268 269 257 249 242 241 243 243 241 244 247 248 250 249 245 240 230 235 236 233 233 234 230 232 237 240 240 243 239 239 241 241 243 241 244 250 255 257 258 259 253 251 251 253 254 257 261 266 268 271 273 273 268 263 259 265 277 278 272 268 266 266 266 269 271 270 271 271 271 273 269 267
231 230 228 227 226 228 224 224 224 224 222 222 230 248 257 259 258 254 251 254 252 250 247 248 249 247 245 246 249 248 239 236 236 236 237 232 226 229 233 235 230 230 234 240 243 243 245 246 247 251 253 254 252 245 248 247 250 254 257 262 265 266 268 269 267 265 268 272 271 268 267 265 266 266 265 265 269 270 271 271 273 276 279 278 277
230 227 nan nan 227 227 226 224 226 227 229 228 226 236 246 248 251 254 253 256 258 253 248 244 242 238 238 240 245 246 244 240 238 235 234 231 232 230 235 233 235 232 231 232 237 244 246 247 248 252 255 255 253 246 246 247 248 254 256 264 267 268 269 269 269 272 273 275 276 274 272 271 269 268 259 257 263 270 276 269 268 276 279 283 281
235 nan 227 227 227 228 227 228 228 228 231 232 231 231 242 248 249 245 246 249 256 256 251 247 239 236 238 242 243 244 240 237 238 239 235 228 228 232 233 230 232 238 242 239 240 245 247 248 252 254 258 258 255 246 245 245 245 247 257 262 265 267 269 269 270 274 277 278 273 271 270 268 266 265 262 262 262 264 275 276 283 277 273 274 272
235 231 229 227 228 227 228 230 231 231 230 234 236 238 240 239 239 243 246 248 254 258 257 250 242 238 235 236 239 242 241 238 239 239 239 236 234 231 230 230 234 236 240 243 246 251 250 250 254 258 261 260 256 248 245 246 247 248 255 266 269 270 268 267 266 265 268 270 272 275 268 265 265 265 263 264 264 270 270 270 273 272 270 269 270
nan 229 226 224 223 224 224 225 228 230 228 235 244 238 240 245 245 243 248 246 241 250 253 247 241 242 242 242 241 241 237 235 236 237 239 242 240 238 237 237 241 244 245 245 247 253 253 250 250 253 257 257 255 251 246 247 249 250 257 265 268 268 267 266 264 264 263 263 261 257 258 262 265 264 261 263 264 269 271 271 274 273 273 272 269
nan nan 222 221 218 216 218 218 218 219 222 227 228 235 238 243 245 249 248 248 247 247 251 248 243 242 243 243 241 237 234 236 239 239 241 243 244 244 245 247 247 247 247 247 249 253 254 252 251 251 254 257 258 257 253 250 251 252 254 268 271 273 270 266 268 265 260 257 258 258 257 259 261 261 261 262 264 266 271 269 268 268 268 267 266
nan nan nan 212 210 208 210 210 206 206 210 215 224 232 234 231 237 241 242 240 246 253 256 251 247 245 245 247 244 240 239 238 237 237 237 238 239 243 246 248 250 251 251 251 252 255 256 256 254 255 255 256 259 259 255 250 252 256 257 266 274 273 270 267 265 263 259 256 255 256 258 257 260 260 260 260 260 260 262 264 263 265 267 267 267
nan nan nan nan 197 199 198 197 195 199 203 207 219 228 229 230 234 237 234 229 233 240 243 245 245 246 248 250 249 245 242 240 237 235 237 239 240 244 247 249 250 252 253 254 255 256 257 256 255 253 254 256 257 255 258 253 250 253 254 257 265 262 264 270 270 271 265 261 259 257 257 256 260 263 264 262 258 258 258 264 265 266 264 264 267
nan nan nan nan nan 194 197 195 194 198 204 208 224 229 229 228 231 230 228 225 222 222 225 229 234 236 236 238 238 237 235 235 235 234 238 241 242 245 247 248 250 252 254 254 252 252 253 254 254 255 255 256 255 256 252 253 245 245 247 249 252 254 253 263 275 275 270 269 269 268 265 262 262 261 260 259 260 261 nan nan 262 262 261 263 268
nan nan nan nan nan 199 200 199 202 205 210 209 217 227 227 231 231 228 230 229 226 226 228 224 219 227 233 235 234 230 229 230 232 235 239 243 241 243 244 244 244 248 252 253 252 252 253 253 253 253 253 252 251 251 248 245 244 241 243 245 247 246 250 266 271 274 279 282 280 276 274 269 266 264 nan nan nan nan nan nan nan nan nan nan nan
nan nan nan nan nan 211 208 209 208 208 208 211 211 219 220 224 223 228 232 234 231 235 236 220 210 nan 221 213 nan 227 223 222 224 228 233 235 235 233 nan nan nan 241 245 250 249 248 249 250 249 247 248 248 247 247 243 237 237 243 243 240 243 247 252 263 270 273 278 282 282 nan nan nan nan nan nan nan nan nan nan nan nan nan nan nan nan
nan nan nan nan nan 210 210 211 nan 209 209 207 209 211 215 209 212 217 223 226 224 nan 231 221 212 218 219 216 226 229 222 218 221 222 nan nan nan nan nan nan nan nan nan nan nan nan nan 244 245 nan nan nan nan nan nan nan 246 253 256 252 255 262 270 277 nan nan nan nan nan nan nan nan nan nan nan nan nan nan nan nan nan nan nan nan nan
nan 208 211 217 217 215 212 nan nan nan 208 205 203 203 204 202 203 203 209 214 218 225 nan 218 215 nan 217 nan 228 233 230 nan nan nan nan nan nan nan nan nan nan nan nan nan nan nan nan nan nan nan nan nan nan nan nan nan nan nan 267 270 272 273 nan nan nan nan nan nan nan nan nan nan nan nan nan nan nan nan nan nan nan nan nan nan nan
226 212 nan nan nan 215 212 212 nan nan nan 202 201 202 200 198 197 nan nan nan nan nan nan nan nan nan nan nan nan nan nan nan nan nan nan nan nan nan nan nan nan nan nan nan nan nan nan nan nan nan nan nan nan nan nan nan nan nan nan nan 280 nan nan nan nan nan nan nan nan nan nan nan nan nan nan nan nan nan nan nan nan nan nan nan nan
229 213 nan nan nan nan nan 211 207 nan nan 202 200 197 197 202 nan nan nan nan nan nan nan nan nan nan nan nan nan nan nan nan nan nan nan nan nan nan nan nan nan nan nan nan nan nan nan nan nan nan nan nan nan nan nan nan nan nan nan nan nan nan nan nan nan nan nan nan nan nan nan nan nan nan nan nan nan nan nan nan nan nan nan nan nan
241 nan nan nan nan nan nan nan nan nan nan nan 206 205 nan 206 nan nan nan nan nan nan nan nan nan nan nan nan nan nan nan nan nan nan nan nan nan nan nan nan nan nan nan nan nan nan nan nan nan nan nan nan nan nan nan nan nan nan nan nan nan nan nan nan nan nan nan nan nan nan nan nan nan nan nan nan nan nan nan nan nan nan nan nan nan
nan nan nan nan nan nan nan nan nan nan nan nan nan nan nan nan nan nan nan nan nan nan nan nan nan nan nan nan nan nan nan nan nan nan nan nan nan nan nan nan nan nan nan nan nan nan nan nan nan nan nan nan nan nan nan nan nan nan nan nan nan nan nan nan nan nan nan nan nan nan nan nan nan nan nan nan nan nan nan nan nan nan nan nan nan